| time (UTC) | temp F | wind direction | speed knots | gust knots | rain 1hr in | rain 24hr in | rain mn in | humidity % | barometer mb |
| 20260505024437 | 61 | 201 | 0.9 | 1.7 | 0.00 | 0.00 | 0.00 | 56 | 1005.9 |
| 20260505023934 | 61 | 192 | 0.9 | 0.9 | 0.00 | 0.00 | 0.00 | 55 | 1005.8 |
| 20260505023431 | 61 | 201 | 1.7 | 1.7 | 0.00 | 0.00 | 0.00 | 55 | 1005.7 |
| 20260505022928 | 61 | 200 | 0.0 | 0.9 | 0.00 | 0.00 | 0.00 | 55 | 1005.7 |
| 20260505022426 | 61 | 215 | 2.6 | 2.6 | 0.00 | 0.00 | 0.00 | 54 | 1005.6 |
| 20260505021922 | 61 | 209 | 2.6 | 4.3 | 0.00 | 0.00 | 0.00 | 54 | 1005.7 |
| 20260505021419 | 61 | 179 | 0.9 | 1.7 | 0.00 | 0.00 | 0.00 | 54 | 1005.7 |
| 20260505020914 | 61 | 191 | 1.7 | 2.6 | 0.00 | 0.00 | 0.00 | 54 | 1005.8 |
| 20260505020410 | 62 | 222 | 0.9 | 0.9 | 0.00 | 0.00 | 0.00 | 53 | 1005.8 |
| 20260505015907 | 62 | 222 | 0.9 | 1.7 | 0.00 | 0.00 | 0.00 | 54 | 1005.6 |
| 20260505015404 | 62 | 194 | 0.9 | 1.7 | 0.00 | 0.00 | 0.00 | 53 | 1005.4 |
| 20260505014902 | 62 | 170 | 4.3 | 6.1 | 0.00 | 0.00 | 0.00 | 52 | 1005.5 |
| 20260505014358 | 62 | 229 | 1.7 | 2.6 | 0.00 | 0.00 | 0.00 | 53 | 1005.5 |
| 20260505013855 | 63 | 187 | 0.9 | 1.7 | 0.00 | 0.00 | 0.00 | 52 | 1005.6 |
| 20260505013352 | 63 | 218 | 4.3 | 7.0 | 0.00 | 0.00 | 0.00 | 52 | 1005.2 |
| 20260505012851 | 63 | 246 | 1.7 | 1.7 | 0.00 | 0.00 | 0.00 | 51 | 1005.0 |
| 20260505012348 | 63 | 209 | 0.9 | 0.9 | 0.00 | 0.00 | 0.00 | 51 | 1005.1 |
| 20260505011844 | 64 | 202 | 3.5 | 7.0 | 0.00 | 0.00 | 0.00 | 50 | 1004.9 |
| 20260505011341 | 64 | 243 | 4.3 | 7.0 | 0.00 | 0.00 | 0.00 | 50 | 1004.9 |
| 20260505010837 | 64 | 225 | 0.9 | 1.7 | 0.00 | 0.00 | 0.00 | 50 | 1005.0 |
| 20260505010333 | 64 | 209 | 1.7 | 4.3 | 0.00 | 0.00 | 0.00 | 50 | 1004.8 |
| 20260505005829 | 64 | 244 | 6.1 | 7.8 | 0.00 | 0.00 | 0.00 | 49 | 1004.7 |
| 20260505005326 | 65 | 213 | 5.2 | 7.0 | 0.00 | 0.00 | 0.00 | 48 | 1004.6 |
| 20260505004824 | 65 | 220 | 4.3 | 5.2 | 0.00 | 0.00 | 0.00 | 48 | 1004.6 |
| 20260505004320 | 65 | 221 | 1.7 | 1.7 | 0.00 | 0.00 | 0.00 | 47 | 1004.5 |
| 20260505003817 | 65 | 224 | 0.9 | 0.9 | 0.00 | 0.00 | 0.00 | 47 | 1004.3 |
| 20260505003315 | 66 | 243 | 3.5 | 7.0 | 0.00 | 0.00 | 0.00 | 47 | 1004.1 |
| 20260505002810 | 66 | 209 | 0.9 | 1.7 | 0.00 | 0.00 | 0.00 | 45 | 1004.1 |
| 20260505002308 | 66 | 221 | 6.1 | 8.7 | 0.00 | 0.00 | 0.00 | 44 | 1003.6 |
| 20260505001806 | 65 | 188 | 0.0 | 0.0 | 0.00 | 0.00 | 0.00 | 44 | 1003.4 |
| 20260505001303 | 66 | 200 | 0.9 | 0.9 | 0.00 | 0.00 | 0.00 | 45 | 1003.5 |
| 20260505000800 | 66 | 224 | 0.9 | 1.7 | 0.00 | 0.00 | 0.00 | 42 | 1003.2 |
| 20260505000258 | 66 | 206 | 0.9 | 0.9 | 0.00 | 0.00 | 0.00 | 41 | 1003.3 |
| 20260504235754 | 66 | 221 | 0.9 | 0.9 | 0.00 | 0.00 | 0.00 | 41 | 1002.9 |
| 20260504235250 | 67 | 209 | 0.9 | 0.9 | 0.00 | 0.00 | 0.00 | 42 | 1003.0 |
| 20260504234748 | 68 | 211 | 2.6 | 4.3 | 0.00 | 0.00 | 0.00 | 40 | 1002.9 |
| 20260504234245 | 68 | 202 | 0.0 | 0.0 | 0.00 | 0.00 | 0.00 | 40 | 1002.8 |
| 20260504233741 | 68 | 206 | 0.0 | 0.9 | 0.00 | 0.00 | 0.00 | 40 | 1002.8 |
| 20260504233237 | 69 | 200 | 0.9 | 0.9 | 0.00 | 0.00 | 0.00 | 39 | 1002.6 |
| 20260504232734 | 69 | 222 | 1.7 | 1.7 | 0.00 | 0.00 | 0.00 | 38 | 1002.6 |
| 20260504232231 | 69 | 210 | 0.9 | 0.9 | 0.00 | 0.00 | 0.00 | 38 | 1002.7 |
| 20260504231728 | 70 | 221 | 1.7 | 1.7 | 0.00 | 0.00 | 0.00 | 37 | 1002.6 |
| 20260504231224 | 70 | 212 | 0.9 | 0.9 | 0.00 | 0.00 | 0.00 | 37 | 1002.5 |
| 20260504230720 | 70 | 220 | 1.7 | 1.7 | 0.00 | 0.00 | 0.00 | 37 | 1002.5 |
| 20260504230219 | 70 | 190 | 1.7 | 1.7 | 0.00 | 0.00 | 0.00 | 37 | 1002.3 |
| 20260504225718 | 71 | 326 | 1.7 | 1.7 | 0.00 | 0.00 | 0.00 | 36 | 1002.3 |
| 20260504225213 | 71 | 220 | 0.9 | 0.9 | 0.00 | 0.00 | 0.00 | 37 | 1002.0 |
| 20260504224711 | 71 | 183 | 0.9 | 0.9 | 0.00 | 0.00 | 0.00 | 37 | 1002.2 |
| 20260504224208 | 71 | 222 | 2.6 | 2.6 | 0.00 | 0.00 | 0.00 | 36 | 1001.9 |
| 20260504223704 | 71 | 260 | 1.7 | 1.7 | 0.00 | 0.00 | 0.00 | 35 | 1002.0 |
| 20260504223200 | 72 | 225 | 0.9 | 1.7 | 0.00 | 0.00 | 0.00 | 35 | 1002.0 |
| 20260504222657 | 72 | 211 | 2.6 | 5.2 | 0.00 | 0.00 | 0.00 | 34 | 1002.1 |
| 20260504222154 | 71 | 217 | 0.0 | 0.9 | 0.00 | 0.00 | 0.00 | 35 | 1002.2 |
| 20260504221651 | 71 | 205 | 2.6 | 2.6 | 0.00 | 0.00 | 0.00 | 35 | 1002.0 |
| 20260504221148 | 72 | 219 | 3.5 | 5.2 | 0.00 | 0.00 | 0.00 | 35 | 1002.1 |
| 20260504220644 | 73 | 198 | 4.3 | 6.1 | 0.00 | 0.00 | 0.00 | 34 | 1002.1 |
| 20260504220142 | 72 | 253 | 2.6 | 2.6 | 0.00 | 0.00 | 0.00 | 34 | 1002.2 |
| 20260504215638 | 71 | 264 | 5.2 | 7.0 | 0.00 | 0.00 | 0.00 | 34 | 1002.4 |
| 20260504215136 | 72 | 253 | 3.5 | 6.1 | 0.00 | 0.00 | 0.00 | 34 | 1002.2 |
| 20260504214631 | 72 | 201 | 2.6 | 2.6 | 0.00 | 0.00 | 0.00 | 33 | 1002.0 |
| 20260504214128 | 74 | 222 | 2.6 | 2.6 | 0.00 | 0.00 | 0.00 | 33 | 1002.3 |
| 20260504213624 | 74 | 193 | 0.9 | 0.9 | 0.00 | 0.00 | 0.00 | 33 | 1002.1 |
| 20260504213121 | 74 | 188 | 3.5 | 7.0 | 0.00 | 0.00 | 0.00 | 33 | 1002.1 |
| 20260504212618 | 73 | 221 | 2.6 | 2.6 | 0.00 | 0.00 | 0.00 | 33 | 1002.1 |
| 20260504212115 | 73 | 232 | 1.7 | 1.7 | 0.00 | 0.00 | 0.00 | 33 | 1001.9 |
| 20260504211612 | 73 | 202 | 3.5 | 5.2 | 0.00 | 0.00 | 0.00 | 33 | 1001.9 |
| 20260504211109 | 72 | 223 | 4.3 | 5.2 | 0.00 | 0.00 | 0.00 | 33 | 1002.1 |
| 20260504210606 | 74 | 222 | 5.2 | 8.7 | 0.00 | 0.00 | 0.00 | 32 | 1001.9 |
| 20260504205601 | 73 | 201 | 0.0 | 0.9 | 0.00 | 0.00 | 0.00 | 32 | 1002.2 |
| 20260504205058 | 74 | 203 | 0.0 | 0.9 | 0.00 | 0.00 | 0.00 | 32 | 1002.0 |
| 20260504204555 | 75 | 201 | 3.5 | 6.1 | 0.00 | 0.00 | 0.00 | 32 | 1001.9 |
| 20260504204055 | 75 | 327 | 4.3 | 5.2 | 0.00 | 0.00 | 0.00 | 31 | 1002.0 |
| 20260504203552 | 74 | 224 | 2.6 | 2.6 | 0.00 | 0.00 | 0.00 | 32 | 1001.9 |
| 20260504203050 | 73 | 196 | 0.9 | 0.9 | 0.00 | 0.00 | 0.00 | 32 | 1002.0 |
| 20260504202545 | 72 | 223 | 1.7 | 4.3 | 0.00 | 0.00 | 0.00 | 33 | 1002.0 |
| 20260504202042 | 73 | 236 | 4.3 | 8.7 | 0.00 | 0.00 | 0.00 | 32 | 1002.1 |
| 20260504201539 | 72 | 212 | 1.7 | 1.7 | 0.00 | 0.00 | 0.00 | 33 | 1002.2 |
| 20260504201037 | 74 | 183 | 7.0 | 9.6 | 0.00 | 0.00 | 0.00 | 31 | 1002.0 |
| 20260504200533 | 74 | 0 | 2.6 | 2.6 | 0.00 | 0.00 | 0.00 | 32 | 1001.9 |
| 20260504200030 | 73 | 240 | 3.5 | 5.2 | 0.00 | 0.00 | 0.00 | 32 | 1002.3 |
| 20260504195526 | 74 | 199 | 1.7 | 2.6 | 0.00 | 0.00 | 0.00 | 31 | 1002.3 |
| 20260504195023 | 73 | 220 | 2.6 | 2.6 | 0.00 | 0.00 | 0.00 | 32 | 1002.2 |
| 20260504194519 | 73 | 246 | 6.1 | 11.3 | 0.00 | 0.00 | 0.00 | 32 | 1002.0 |
| 20260504194014 | 71 | 193 | 4.3 | 6.1 | 0.00 | 0.00 | 0.00 | 32 | 1002.2 |
| 20260504193512 | 71 | 248 | 3.5 | 6.1 | 0.00 | 0.00 | 0.00 | 33 | 1002.1 |
| 20260504193010 | 72 | 214 | 1.7 | 1.7 | 0.00 | 0.00 | 0.00 | 33 | 1002.0 |
| 20260504192508 | 72 | 216 | 0.0 | 0.9 | 0.00 | 0.00 | 0.00 | 32 | 1002.2 |
| 20260504192006 | 73 | 186 | 4.3 | 6.1 | 0.00 | 0.00 | 0.00 | 31 | 1001.9 |
| 20260504191504 | 73 | 228 | 5.2 | 7.8 | 0.00 | 0.00 | 0.00 | 31 | 1002.1 |
| 20260504190959 | 73 | 221 | 2.6 | 4.3 | 0.00 | 0.00 | 0.00 | 32 | 1002.1 |
| 20260504190455 | 73 | 193 | 3.5 | 4.3 | 0.00 | 0.00 | 0.00 | 32 | 1002.4 |
| 20260504185952 | 73 | 294 | 5.2 | 7.0 | 0.00 | 0.00 | 0.00 | 31 | 1002.2 |
| 20260504185449 | 74 | 174 | 4.3 | 7.0 | 0.00 | 0.00 | 0.00 | 31 | 1002.5 |
| 20260504184945 | 73 | 235 | 4.3 | 7.0 | 0.00 | 0.00 | 0.00 | 32 | 1002.4 |
| 20260504184441 | 72 | 188 | 2.6 | 6.1 | 0.00 | 0.00 | 0.00 | 33 | 1002.3 |
| 20260504183936 | 72 | 324 | 2.6 | 4.3 | 0.00 | 0.00 | 0.00 | 33 | 1002.8 |
| 20260504183434 | 73 | 212 | 6.1 | 7.0 | 0.00 | 0.00 | 0.00 | 31 | 1002.8 |
| 20260504182932 | 72 | 202 | 2.6 | 4.3 | 0.00 | 0.00 | 0.00 | 32 | 1002.9 |
| 20260504182429 | 72 | 200 | 2.6 | 2.6 | 0.00 | 0.00 | 0.00 | 32 | 1002.9 |
| 20260504181926 | 74 | 290 | 8.7 | 14.8 | 0.00 | 0.00 | 0.00 | 31 | 1002.7 |
| 20260504181423 | 72 | 331 | 2.6 | 2.6 | 0.00 | 0.00 | 0.00 | 31 | 1002.6 |
| 20260504180922 | 72 | 197 | 4.3 | 6.1 | 0.00 | 0.00 | 0.00 | 32 | 1002.7 |
| 20260504180420 | 72 | 256 | 2.6 | 6.1 | 0.00 | 0.00 | 0.00 | 32 | 1002.7 |
| 20260504175918 | 72 | 203 | 3.5 | 5.2 | 0.00 | 0.00 | 0.00 | 32 | 1003.0 |
| 20260504175414 | 72 | 350 | 2.6 | 5.2 | 0.00 | 0.00 | 0.00 | 32 | 1002.8 |
| 20260504174912 | 72 | 202 | 1.7 | 2.6 | 0.00 | 0.00 | 0.00 | 33 | 1003.0 |
| 20260504174410 | 70 | 214 | 1.7 | 2.6 | 0.00 | 0.00 | 0.00 | 32 | 1003.0 |
| 20260504173907 | 71 | 284 | 3.5 | 6.1 | 0.00 | 0.00 | 0.00 | 33 | 1002.9 |
| 20260504173403 | 70 | 178 | 5.2 | 6.1 | 0.00 | 0.00 | 0.00 | 33 | 1003.1 |
| 20260504172901 | 70 | 300 | 3.5 | 5.2 | 0.00 | 0.00 | 0.00 | 33 | 1003.1 |
| 20260504172357 | 70 | 231 | 8.7 | 12.2 | 0.00 | 0.00 | 0.00 | 32 | 1003.2 |
| 20260504171852 | 70 | 239 | 5.2 | 7.0 | 0.00 | 0.00 | 0.00 | 33 | 1003.3 |
| 20260504171350 | 70 | 221 | 4.3 | 6.1 | 0.00 | 0.00 | 0.00 | 33 | 1003.4 |
| 20260504170847 | 70 | 224 | 1.7 | 1.7 | 0.00 | 0.00 | 0.00 | 35 | 1003.2 |
| 20260504170344 | 69 | 170 | 4.3 | 5.2 | 0.00 | 0.00 | 0.00 | 35 | 1003.2 |
| 20260504160302 | 67 | 299 | 7.8 | 11.3 | 0.00 | 0.00 | 0.00 | 35 | 1003.9 |
| 20260504150728 | 66 | 170 | 6.1 | 8.7 | 0.00 | 0.00 | 0.00 | 40 | 1004.5 |
| 20260504150224 | 65 | 205 | 6.1 | 7.8 | 0.00 | 0.00 | 0.00 | 40 | 1004.6 |
| 20260504141154 | 63 | 221 | 3.5 | 5.2 | 0.00 | 0.00 | 0.00 | 43 | 1005.4 |
| 20260504140650 | 62 | 244 | 2.6 | 2.6 | 0.00 | 0.00 | 0.00 | 44 | 1005.3 |
| 20260504140146 | 62 | 222 | 4.3 | 7.0 | 0.00 | 0.00 | 0.00 | 44 | 1005.4 |
| 20260504130614 | 59 | 231 | 1.7 | 2.6 | 0.00 | 0.00 | 0.00 | 48 | 1005.9 |
| 20260504130111 | 58 | 254 | 4.3 | 6.1 | 0.00 | 0.00 | 0.00 | 48 | 1005.9 |
| 20260504110502 | 46 | 196 | 0.0 | 0.0 | 0.00 | 0.00 | 0.00 | 72 | 1006.7 |
| 20260504100424 | 42 | 213 | 0.0 | 0.0 | 0.00 | 0.00 | 0.00 | 74 | 1006.6 |
| 20260504081817 | 42 | 209 | 0.0 | 0.0 | 0.00 | 0.00 | 0.00 | 72 | 1006.8 |
| 20260504081314 | 42 | 201 | 0.0 | 0.9 | 0.00 | 0.00 | 0.00 | 74 | 1006.4 |
| 20260504080810 | 42 | 208 | 0.0 | 0.9 | 0.00 | 0.00 | 0.00 | 73 | 1006.3 |
| 20260504080307 | 42 | 209 | 0.0 | 0.0 | 0.00 | 0.00 | 0.00 | 72 | 1006.5 |
| 20260504070235 | 40 | 207 | 0.0 | 0.9 | 0.00 | 0.00 | 0.00 | 80 | 1006.5 |
| 20260504060155 | 37 | 216 | 0.0 | 0.0 | 0.00 | 0.00 | 0.00 | 88 | 1006.2 |
| 20260504050623 | 33 | 217 | 0.0 | 0.0 | 0.00 | 0.00 | 0.00 | 91 | 1006.5 |
| 20260504050120 | 33 | 217 | 0.0 | 0.0 | 0.00 | 0.00 | 0.00 | 91 | 1006.3 |
| 20260504045617 | 33 | 217 | 0.0 | 0.0 | 0.00 | 0.00 | 0.00 | 90 | 1006.4 |
| 20260504045112 | 34 | 217 | 0.9 | 0.9 | 0.00 | 0.00 | 0.00 | 90 | 1006.4 |
| 20260504044610 | 34 | 218 | 0.0 | 0.0 | 0.00 | 0.00 | 0.00 | 90 | 1006.4 |
| 20260504044106 | 34 | 218 | 0.0 | 0.9 | 0.00 | 0.00 | 0.00 | 90 | 1006.5 |
| 20260504043604 | 34 | 219 | 0.0 | 0.0 | 0.00 | 0.00 | 0.00 | 90 | 1006.5 |
| 20260504043101 | 34 | 219 | 0.0 | 0.0 | 0.00 | 0.00 | 0.00 | 90 | 1006.3 |
| 20260504042558 | 34 | 219 | 0.9 | 0.9 | 0.00 | 0.00 | 0.00 | 90 | 1006.3 |
| 20260504042055 | 34 | 219 | 0.0 | 0.0 | 0.00 | 0.00 | 0.00 | 90 | 1006.4 |
| 20260504041550 | 34 | 219 | 0.0 | 0.0 | 0.00 | 0.00 | 0.00 | 90 | 1006.3 |
| 20260504041047 | 34 | 219 | 0.0 | 0.0 | 0.00 | 0.00 | 0.00 | 89 | 1006.2 |
| 20260504040544 | 34 | 219 | 0.0 | 0.0 | 0.00 | 0.00 | 0.00 | 89 | 1006.3 |
| 20260504040041 | 34 | 219 | 0.0 | 0.0 | 0.00 | 0.01 | 0.01 | 89 | 1006.2 |
| 20260504035538 | 34 | 219 | 0.0 | 0.0 | 0.00 | 0.01 | 0.01 | 89 | 1006.2 |
| 20260504035034 | 35 | 219 | 0.0 | 0.0 | 0.00 | 0.01 | 0.01 | 88 | 1006.2 |
| 20260504034533 | 35 | 219 | 0.0 | 0.0 | 0.00 | 0.01 | 0.01 | 88 | 1006.0 |
| 20260504034028 | 35 | 219 | 0.0 | 0.0 | 0.00 | 0.01 | 0.01 | 88 | 1006.0 |
| 20260504033527 | 35 | 218 | 0.9 | 0.9 | 0.00 | 0.01 | 0.01 | 88 | 1005.8 |
| 20260504033024 | 35 | 217 | 0.0 | 0.0 | 0.00 | 0.01 | 0.01 | 88 | 1006.0 |
| 20260504032521 | 36 | 217 | 0.0 | 0.0 | 0.00 | 0.01 | 0.01 | 87 | 1006.0 |
| 20260504032017 | 36 | 217 | 0.0 | 0.0 | 0.00 | 0.01 | 0.01 | 87 | 1006.0 |
| 20260504031514 | 35 | 218 | 0.0 | 0.9 | 0.00 | 0.01 | 0.01 | 86 | 1005.9 |
| 20260504031010 | 35 | 218 | 0.0 | 0.0 | 0.00 | 0.01 | 0.01 | 86 | 1006.1 |
| 20260504030508 | 36 | 218 | 0.0 | 0.0 | 0.00 | 0.01 | 0.01 | 85 | 1006.0 |
| 20260504030004 | 36 | 218 | 0.0 | 0.9 | 0.00 | 0.01 | 0.01 | 85 | 1006.0 |
| 20260504025501 | 36 | 218 | 0.0 | 0.0 | 0.00 | 0.01 | 0.01 | 85 | 1005.9 |
| 20260504024957 | 36 | 218 | 0.0 | 0.0 | 0.00 | 0.01 | 0.01 | 85 | 1005.9 |